Weather History for Sidney-Richland, MT

Change the Weather History Date:

Saturday, August 30, 2014

  Actual Average Record
Temperature  
Mean Temperature 61 °F -  
Max Temperature 71 °F 81 °F 98 °F (1921)
Min Temperature 51 °F 49 °F 37 °F (1955)
Degree Days  
Heating Degree Days 4    
Growing Degree Days 11 (Base 50)    
Moisture  
Dew Point 56 °F    
Average Humidity 83    
Maximum Humidity 94    
Minimum Humidity 64    
Precipitation  
Precipitation 0.00 in - - ()
Sea Level Pressure  
Sea Level Pressure 29.80 in    
Wind  
Wind Speed 6 mph (South)    
Max Wind Speed 17 mph    
Max Gust Speed 24 mph    
Visibility 10 miles    
Events Thunderstorm    
Averages and records for this station are not official NWS values.
T = Trace of Precipitation, MM = Missing Value Source: NWS Daily Summary

Daily Weather History Graph

Daily Weather History Graph

Search for Another Location

Airport:

Trip Planner

Search our weather history database for the weather conditions in past years. The results will help you decide how hot, cold, wet, or windy it might be!

Date:

Astronomy

Aug. 30, 2014 Rise Set
Actual Time 6:12 AM MDT 7:41 PM MDT
Civil Twilight 5:40 AM MDT 8:13 PM MDT
Nautical Twilight 5:01 AM MDT 8:52 PM MDT
Astronomical Twilight 4:18 AM MDT 9:34 PM MDT
Moon 11:25 AM MDT (8/30) 9:52 PM MDT (8/30)
Length of Visible Light 14h 32m
Length of Day
13h 28m
Waxing Crescent, 23% of the Moon is Illuminated
Aug 30
Waxing Crescent
Sep 2
First Quarter
Sep 8
Full
Sep 15
Last Quarter
Sep 24
New

Hourly Weather History & Observations

Time (MDT) Temp. Dew Point Humidity Pressure Visibility Wind Dir Wind Speed Gust Speed Precip Events Conditions
12:15 AM 55.4 °F 51.8 °F 88% 29.96 in 10.0 mi Calm Calm - N/A   Clear
12:35 AM 55.4 °F 51.8 °F 88% 29.96 in 10.0 mi South 4.6 mph - N/A   Clear
12:55 AM 55.4 °F 51.8 °F 88% 29.96 in 10.0 mi Calm Calm - N/A   Clear
1:15 AM 55.4 °F 51.8 °F 88% 29.95 in 10.0 mi Calm Calm - N/A   Clear
1:35 AM 53.6 °F 51.8 °F 94% 29.95 in 10.0 mi Calm Calm - N/A   Clear
1:55 AM 55.4 °F 51.8 °F 88% 29.95 in 10.0 mi Calm Calm - N/A   Clear
2:15 AM 53.6 °F 51.8 °F 94% 29.94 in 10.0 mi South 6.9 mph - N/A   Clear
2:35 AM 55.4 °F 51.8 °F 88% 29.94 in 10.0 mi South 6.9 mph - N/A   Clear
2:55 AM 55.4 °F 51.8 °F 88% 29.93 in 10.0 mi South 6.9 mph - N/A   Clear
3:15 AM 55.4 °F 51.8 °F 88% 29.92 in 10.0 mi South 6.9 mph - N/A   Clear
3:35 AM 55.4 °F 51.8 °F 88% 29.92 in 10.0 mi South 8.1 mph - N/A   Clear
3:55 AM 55.4 °F 51.8 °F 88% 29.91 in 10.0 mi South 6.9 mph - N/A   Clear
4:15 AM 55.4 °F 51.8 °F 88% 29.91 in 10.0 mi South 6.9 mph - N/A   Clear
4:35 AM 55.4 °F 51.8 °F 88% 29.90 in 10.0 mi South 6.9 mph - N/A   Clear
4:55 AM 53.6 °F 51.8 °F 94% 29.89 in 10.0 mi South 3.5 mph - N/A   Clear
5:15 AM 53.6 °F 51.8 °F 94% 29.88 in 10.0 mi South 8.1 mph - N/A   Clear
5:35 AM 53.6 °F 51.8 °F 94% 29.88 in 10.0 mi South 6.9 mph - N/A   Clear
5:55 AM 53.6 °F 50.0 °F 88% 29.87 in 10.0 mi SSE 3.5 mph - N/A   Clear
6:15 AM 51.8 °F 50.0 °F 94% 29.86 in 10.0 mi SE 3.5 mph - N/A   Clear
6:35 AM 53.6 °F 51.8 °F 94% 29.86 in 10.0 mi Calm Calm - N/A   Clear
6:55 AM 53.6 °F 51.8 °F 94% 29.86 in 10.0 mi Calm Calm - N/A   Clear
7:15 AM 57.2 °F 53.6 °F 88% 29.86 in 10.0 mi Calm Calm - N/A   Clear
7:35 AM 57.2 °F 53.6 °F 88% 29.85 in 10.0 mi South 3.5 mph - N/A   Clear
7:55 AM 59.0 °F 55.4 °F 88% 29.84 in 10.0 mi SSE 5.8 mph - N/A   Clear
8:15 AM 60.8 °F 55.4 °F 82% 29.83 in 10.0 mi SSE 9.2 mph - N/A   Clear
8:55 AM 62.6 °F 57.2 °F 82% 29.82 in 10.0 mi SSE 12.7 mph 16.1 mph N/A   Clear
9:15 AM 64.4 °F 57.2 °F 77% 29.81 in 10.0 mi South 15.0 mph - N/A   Clear
9:35 AM 66.2 °F 57.2 °F 73% 29.82 in 10.0 mi South 13.8 mph 20.7 mph N/A   Clear
9:55 AM 66.2 °F 57.2 °F 73% 29.83 in 10.0 mi SSE 12.7 mph - N/A   Clear
10:15 AM 66.2 °F 57.2 °F 73% 29.82 in 10.0 mi South 15.0 mph - N/A   Clear
10:35 AM 66.2 °F 57.2 °F 73% 29.81 in 10.0 mi South 15.0 mph - N/A   Clear
10:55 AM 66.2 °F 59.0 °F 78% 29.81 in 10.0 mi SSW 9.2 mph - N/A   Clear
11:15 AM 68.0 °F 57.2 °F 68% 29.78 in 10.0 mi SSE 12.7 mph - N/A   Clear
11:35 AM 69.8 °F 59.0 °F 68% 29.78 in 10.0 mi SSE 16.1 mph - N/A   Clear
11:55 AM 69.8 °F 57.2 °F 64% 29.77 in 10.0 mi SSE 13.8 mph 19.6 mph N/A   Clear
12:15 PM 69.8 °F 60.8 °F 73% 29.77 in 10.0 mi South 15.0 mph 19.6 mph N/A   Clear
12:35 PM 69.8 °F 59.0 °F 68% 29.76 in 10.0 mi SSE 11.5 mph - N/A   Clear
12:55 PM 71.6 °F 60.8 °F 69% 29.76 in 10.0 mi SSE 11.5 mph - N/A   Clear
1:15 PM 71.6 °F 60.8 °F 69% 29.76 in 10.0 mi SSE 12.7 mph 18.4 mph N/A   Clear
1:55 PM 71.6 °F 60.8 °F 69% 29.73 in 10.0 mi SSE 9.2 mph - N/A   Clear
2:15 PM 71.6 °F 60.8 °F 69% 29.71 in 10.0 mi ESE 5.8 mph - N/A   Partly Cloudy
2:35 PM 71.6 °F 60.8 °F 69% 29.70 in 10.0 mi ESE 5.8 mph - N/A   Mostly Cloudy
2:55 PM 69.8 °F 62.6 °F 78% 29.71 in 10.0 mi South 4.6 mph - N/A   Mostly Cloudy
3:15 PM 69.8 °F 64.4 °F 83% 29.71 in 10.0 mi Calm Calm - N/A   Mostly Cloudy
3:35 PM 69.8 °F 64.4 °F 83% 29.71 in 10.0 mi Calm Calm - N/A   Overcast
3:55 PM 69.8 °F 64.4 °F 83% 29.70 in 10.0 mi NW 5.8 mph - N/A   Overcast
4:15 PM 69.8 °F 60.8 °F 73% 29.71 in 10.0 mi NW 17.3 mph 24.2 mph N/A Thunderstorm Thunderstorm
4:35 PM 66.2 °F 60.8 °F 83% 29.70 in 10.0 mi NW 16.1 mph 19.6 mph N/A   Overcast
4:55 PM 66.2 °F 60.8 °F 83% 29.71 in 10.0 mi NW 12.7 mph 19.6 mph N/A   Overcast
5:15 PM 68.0 °F 60.8 °F 78% 29.70 in 10.0 mi NW 13.8 mph - N/A   Mostly Cloudy
5:35 PM 68.0 °F 59.0 °F 73% 29.70 in 10.0 mi NNW 10.4 mph - N/A   Mostly Cloudy
5:55 PM 68.0 °F 59.0 °F 73% 29.70 in 10.0 mi NNW 9.2 mph - N/A   Mostly Cloudy
6:15 PM 68.0 °F 59.0 °F 73% 29.71 in 10.0 mi North 8.1 mph - N/A   Mostly Cloudy
6:35 PM 66.2 °F 59.0 °F 78% 29.71 in 10.0 mi North 6.9 mph - N/A   Mostly Cloudy
6:55 PM 64.4 °F 60.8 °F 88% 29.71 in 10.0 mi NNW 4.6 mph - N/A   Overcast
7:35 PM 62.6 °F 57.2 °F 82% 29.69 in 10.0 mi NNW 6.9 mph - N/A   Scattered Clouds
7:55 PM 62.6 °F 57.2 °F 82% 29.69 in 10.0 mi Calm Calm - N/A   Clear
8:15 PM 60.8 °F 57.2 °F 88% 29.70 in 10.0 mi Calm Calm - N/A   Clear
8:35 PM 60.8 °F 57.2 °F 88% 29.72 in 10.0 mi SE 5.8 mph - N/A   Clear
8:55 PM 60.8 °F 57.2 °F 88% 29.69 in 10.0 mi NW 6.9 mph - N/A   Partly Cloudy
9:15 PM 60.8 °F 57.2 °F 88% 29.70 in 10.0 mi NW 8.1 mph - N/A   Clear
9:35 PM 60.8 °F 57.2 °F 88% 29.72 in 10.0 mi WNW 6.9 mph - N/A   Clear
9:55 PM 60.8 °F 57.2 °F 88% 29.72 in 10.0 mi WNW 6.9 mph - N/A   Clear
10:15 PM 59.0 °F 57.2 °F 94% 29.72 in 10.0 mi WNW 6.9 mph - N/A   Clear
10:35 PM 59.0 °F 57.2 °F 94% 29.71 in 10.0 mi WNW 6.9 mph - N/A   Clear
10:55 PM 59.0 °F 57.2 °F 94% 29.72 in 10.0 mi Calm Calm - N/A   Clear
11:15 PM 59.0 °F 57.2 °F 94% 29.72 in 10.0 mi Calm Calm - N/A   Clear
11:35 PM 59.0 °F 57.2 °F 94% 29.71 in 10.0 mi Calm Calm - N/A   Clear
11:55 PM 59.0 °F 57.2 °F 94% 29.71 in 10.0 mi Calm Calm - N/A   Clear